"2010-01-30 00:00:00",1636119,3.009,282.5,6.463,1.232,4.283,101.4905,3.103,4.326,22.66,0,110,13.39,3.87,244.5
"2010-01-30 00:00:30",1636120,1.966,277.9,6.25,0.86,2.942,101.4911,3.104,4.303,22.4,0,110,13.4,3.87,239.9
"2010-01-30 00:01:00",1636121,2.66,284.4,4.667,1.341,4.234,101.4914,3.105,4.22,22.23,0,110,13.4,3.87,246.4
"2010-01-30 00:01:30",1636122,3.243,282.7,8.92,1.285,6.276,101.4858,3.09,4.406,22.45,0,110,13.4,3.85,244.7
"2010-01-30 00:02:00",1636123,2.895,289.6,8.41,1.202,5.173,101.4791,3.073,4.408,22.42,0,110,13.4,3.84,251.6
"2010-01-30 00:02:30",1636124,1.673,280.1,2.595,0.117,2.314,101.469,3.047,4.175,22.3,0,110,13.43,3.81,242.1
"2010-01-30 00:03:00",1636125,2.655,288.1,7.356,1.278,4.266,101.4773,3.069,4.269,22.36,0,110,13.4,3.83,250.1
"2010-01-30 00:03:30",1636126,1.871,294.3,6.973,1.08,3.481,101.4827,3.083,4.302,22.39,0,110,13.41,3.85,256.3
"2010-01-30 00:04:00",1636127,2.613,289,5.834,1.232,4.42,101.4833,3.084,4.204,22.28,0,110,13.41,3.85,251.0
"2010-01-30 00:04:30",1636128,2.974,290.5,5.542,1.288,5.754,101.4724,3.056,4.294,22.42,0,110,13.41,3.82,252.5
"2010-01-30 00:05:00",1636129,3.236,289.4,6.53,1.186,6.312,101.4566,3.016,4.303,22.37,0,110,13.41,3.78,251.4
"2010-01-30 00:05:30",1636130,2.787,289.9,7.456,1.299,5.297,101.4571,3.017,4.324,22.35,0,110,13.41,3.78,251.9
"2010-01-30 00:06:00",1636131,2.33,293.5,6.741,1.196,4.414,101.4571,3.017,4.16,22.25,0,110,13.41,3.78,255.5
"2010-01-30 00:06:30",1636132,1.572,288.3,3.233,0.634,2.268,101.4549,3.012,4.166,22.4,0,110,13.41,3.77,250.3
"2010-01-30 00:07:00",1636133,2.759,287.2,9.25,1.266,4.534,101.4413,2.977,4.108,22.38,0,110,13.41,3.74,249.2
"2010-01-30 00:07:30",1636134,2.03,279.5,5.681,0.94,3.346,101.4261,2.938,4.106,22.69,0,109.9,13.41,3.70,241.5
"2010-01-30 00:08:00",1636135,3.054,287.1,8.74,1.162,5.777,101.4232,2.931,4.174,23.03,0,110,13.41,3.69,249.1
"2010-01-30 00:08:30",1636136,3.35,283.3,6.233,1.193,6.657,101.4201,2.923,4.164,23.27,0,109.9,13.42,3.69,245.3
"2010-01-30 00:09:00",1636137,3.547,286,5.403,1.152,6.492,101.397,2.864,4.196,23.3,0,109.9,13.42,3.63,248.0
"2010-01-30 00:09:30",1636138,1.897,278.9,3.057,0.663,2.784,101.3894,2.844,4.058,22.91,0,109.9,13.42,3.61,240.9
"2010-01-30 00:10:00",1636139,2.87,283,7.823,1.243,4.66,101.3894,2.844,4.043,22.8,0,109.9,13.42,3.61,245.0
"2010-01-30 00:10:30",1636140,2.72,284.1,7.464,1.208,4.822,101.3744,2.806,4.108,22.88,0,109.9,13.42,3.57,246.1
"2010-01-30 00:11:00",1636141,2.628,282.7,6.534,1.215,4.69,101.3601,2.77,4.057,22.84,0,109.9,13.42,3.53,244.7
"2010-01-30 00:11:30",1636142,2.82,288.1,7.498,1.223,5.366,101.3643,2.781,4.08,22.84,0,109.9,13.42,3.54,250.1
"2010-01-30 00:12:00",1636143,2.789,284,5.231,1.215,4.917,101.3554,2.758,3.918,22.75,0,109.9,13.42,3.52,246.0
"2010-01-30 00:12:30",1636144,2.563,281.4,5.623,1.083,4.3,101.3479,2.739,3.924,22.9,0,109.9,13.42,3.50,243.4
"2010-01-30 00:13:00",1636145,2.83,293.3,7.304,1.231,4.439,101.3499,2.744,3.965,22.85,0,109.9,13.42,3.51,255.3
"2010-01-30 00:13:30",1636146,2.741,293.3,4.759,1.286,4.655,101.3311,2.696,3.982,22.69,0,109.9,13.42,3.46,255.3
"2010-01-30 00:14:00",1636147,2.057,289.4,3.631,1.019,3.65,101.322,2.673,3.916,22.58,0,109.9,13.42,3.43,251.4
"2010-01-30 00:14:30",1636148,2.738,292.2,6.008,1.213,5.486,101.3153,2.655,3.924,22.52,0,109.9,13.42,3.42,254.2
"2010-01-30 00:15:00",1636149,3.007,295.6,5.139,1.174,5.96,101.2893,2.589,3.901,22.47,0,109.9,13.42,3.35,257.6
"2010-01-30 00:15:30",1636150,2.619,289.1,6.353,1.254,5.161,101.2881,2.586,3.846,22.35,0,109.9,13.42,3.35,251.1
"2010-01-30 00:16:00",1636151,1.81,282.3,5.287,0.654,2.73,101.2782,2.561,3.678,22.2,0,109.9,13.42,3.32,244.3
"2010-01-30 00:16:30",1636152,2.97,278.8,7.646,1.27,5.016,101.2551,2.502,3.799,22.67,0,109.9,13.42,3.26,240.8
"2010-01-30 00:17:00",1636153,2.12,283.4,5.391,1.002,3.347,101.2542,2.5,3.718,22.97,0,109.9,13.43,3.26,245.4
"2010-01-30 00:17:30",1636154,3.472,298.4,6.459,1.195,6.117,101.2342,2.448,3.746,22.72,0,109.9,13.43,3.21,260.4
"2010-01-30 00:18:00",1636155,2.647,290.3,6.073,1.236,4.988,101.2232,2.42,3.76,22.51,0,109.9,13.44,3.18,252.3
"2010-01-30 00:18:30",1636156,2.729,279.8,7.364,1.224,5.649,101.2281,2.433,3.81,22.59,0,109.9,13.44,3.19,241.8
"2010-01-30 00:19:00",1636157,2.922,276.7,9.65,1.243,5.058,101.2083,2.382,3.605,22.57,0,109.9,13.44,3.14,238.7
"2010-01-30 00:19:30",1636158,2.569,281.5,6.661,1.21,4.166,101.2042,2.372,3.608,22.96,0,109.9,13.44,3.13,243.5
"2010-01-30 00:20:00",1636159,2.672,277.4,5.662,1.16,3.774,101.2088,2.383,3.573,22.92,0,109.9,13.44,3.14,239.4
"2010-01-30 00:20:30",1636160,3.413,279.9,8.82,1.215,5.517,101.1857,2.325,3.551,22.99,0,109.8,13.45,3.08,241.9
"2010-01-30 00:21:00",1636161,3.309,277.3,6.689,1.21,5.66,101.1857,2.325,3.591,23.44,0,109.9,13.45,3.08,239.3
"2010-01-30 00:21:30",1636162,3.983,281,5.961,1.116,6.365,101.1846,2.322,3.593,23.82,0,109.9,13.45,3.08,243.0
"2010-01-30 00:22:00",1636163,3.269,275.2,6.649,1.225,5.119,101.1642,2.27,3.577,23.77,0,109.9,13.45,3.03,237.2
"2010-01-30 00:22:30",1636164,2.226,269.6,1.684,0.072,2.703,101.1529,2.241,3.389,23.55,0,109.8,13.49,3.00,231.6
"2010-01-30 00:23:00",1636165,2.593,270.6,4.879,0.963,3.101,101.1526,2.24,3.336,23.82,0,109.8,13.45,3.00,232.6
"2010-01-30 00:23:30",1636166,3.49,275.8,6.469,1.282,5.333,101.136,2.198,3.488,24.2,0,109.8,13.45,2.96,237.8
"2010-01-30 00:24:00",1636167,2.953,271.1,4.922,1.141,4.237,101.119,2.154,3.404,24.45,0,109.8,13.46,2.91,233.1
"2010-01-30 00:24:30",1636168,4.075,275.4,5.277,1.065,6.509,101.119,2.154,3.507,25.19,0,109.8,13.46,2.91,237.4
"2010-01-30 00:25:00",1636169,4.028,276.1,5.278,1.173,6.558,101.1139,2.142,3.507,25.46,0,109.8,13.46,2.90,238.1
"2010-01-30 00:25:30",1636170,2.949,269.3,6.441,1.104,4.073,101.0888,2.077,3.323,25.14,0,109.8,13.46,2.84,231.3
"2010-01-30 00:26:00",1636171,2.232,264.2,1.983,0.11,2.503,101.0851,2.068,3.209,24.87,0,109.8,13.49,2.83,226.2
"2010-01-30 00:26:30",1636172,2.248,266.6,3.149,0.321,2.959,101.0851,2.068,3.269,24.88,0,109.8,13.46,2.83,228.6
"2010-01-30 00:27:00",1636173,4.056,276.3,6.308,1.174,6.526,101.0817,2.059,3.422,24.96,0,109.8,13.47,2.82,238.3
"2010-01-30 00:27:30",1636174,3.274,269.3,7.01,1.244,5.025,101.056,1.994,3.323,24.82,0,109.8,13.47,2.75,231.3
"2010-01-30 00:28:00",1636175,4.047,274.6,7.299,1.147,6.456,101.0578,1.998,3.388,25.31,0,109.8,13.47,2.76,236.6
"2010-01-30 00:28:30",1636176,3.799,275.9,6.353,1.214,5.693,101.0663,2.02,3.325,25.21,0,109.8,13.47,2.78,237.9
"2010-01-30 00:29:00",1636177,2.232,271,1.952,0.113,2.788,101.0681,2.025,3.1,24.39,0,109.8,13.5,2.78,233.0
"2010-01-30 00:29:30",1636178,2.332,270.3,1.705,0.118,2.455,101.0625,2.01,3.095,23.89,0,109.8,13.5,2.77,232.3
"2010-01-30 00:30:00",1636179,3.994,281.3,6.136,1.243,5.967,101.0518,1.983,3.32,23.74,0,109.8,13.47,2.74,243.3
"2010-01-30 00:30:30",1636180,3.986,280.7,6.859,1.188,6.151,101.0516,1.982,3.271,23.44,0,109.8,13.47,2.74,242.7
"2010-01-30 00:31:00",1636181,3.608,279.9,7.367,1.292,5.628,101.0516,1.982,3.286,23.62,0,109.8,13.47,2.74,241.9
"2010-01-30 00:31:30",1636182,4.161,284.1,5.08,1.19,6.496,101.0496,1.977,3.276,23.31,0,109.8,13.47,2.74,246.1
"2010-01-30 00:32:00",1636183,2.983,280.5,3.69,1.262,4.154,101.0323,1.933,3.086,22.97,0,109.8,13.47,2.69,242.5
"2010-01-30 00:32:30",1636184,2.32,277.9,2.483,0.148,2.693,101.0179,1.897,3.004,22.72,0,109.8,13.5,2.66,239.9
"2010-01-30 00:33:00",1636185,2.46,281.5,3.224,0.483,2.765,101.0176,1.896,2.997,22.55,0,109.8,13.47,2.65,243.5
"2010-01-30 00:33:30",1636186,3.859,291.2,7.119,1.275,6.014,101.0176,1.896,3.214,22.64,0,109.8,13.47,2.65,253.2
"2010-01-30 00:34:00",1636187,4.387,296.3,5.961,1.016,6.802,101.0176,1.896,3.24,22.68,0,109.8,13.47,2.65,258.3
"2010-01-30 00:34:30",1636188,3.871,288.1,10.78,1.226,6.481,101.0173,1.895,3.213,22.68,0,109.8,13.48,2.65,250.1
"2010-01-30 00:35:00",1636189,3.828,285.7,4.733,1.088,6.557,101.0069,1.868,3.119,22.63,0,109.8,13.48,2.63,247.7
"2010-01-30 00:35:30",1636190,2.136,275.5,5.624,0.134,2.821,101.0029,1.858,2.919,22.46,0,109.8,13.48,2.62,237.5
"2010-01-30 00:36:00",1636191,2.243,283.9,5.353,0.083,2.399,100.9894,1.824,2.927,22.47,0,109.7,13.52,2.58,245.9
"2010-01-30 00:36:30",1636192,2.861,295.5,6.87,1.166,4.235,100.984,1.81,3.06,22.65,0,109.7,13.48,2.57,257.5
"2010-01-30 00:37:00",1636193,3.601,296.5,7.015,1.169,6.369,100.9854,1.814,3.168,22.73,0,109.7,13.49,2.57,258.5
"2010-01-30 00:37:30",1636194,3.927,286.9,5.442,1.073,6.892,100.9931,1.833,3.142,22.79,0,109.7,13.49,2.59,248.9
"2010-01-30 00:38:00",1636195,3.73,285.8,6.935,1.094,6.53,100.9943,1.836,3.154,22.85,0,109.7,13.49,2.59,247.8
"2010-01-30 00:38:30",1636196,2.747,279.2,4.171,0.997,4.032,100.9949,1.838,2.89,22.72,0,109.7,13.49,2.60,241.2
"2010-01-30 00:39:00",1636197,2.012,271.4,1.933,0.116,2.812,101,1.851,2.884,22.73,0,109.7,13.52,2.61,233.4
"2010-01-30 00:39:30",1636198,2.704,280.9,7.134,0.782,3.135,101.0049,1.863,2.92,22.82,0,109.7,13.49,2.62,242.9
"2010-01-30 00:40:00",1636199,3.559,290.5,7.092,1.241,6.013,100.9961,1.841,3.073,23.05,0,109.7,13.49,2.60,252.5
"2010-01-30 00:40:30",1636200,4.132,281.5,5.394,1.089,7.454,100.9828,1.807,3.205,23.17,0,109.7,13.5,2.57,243.5
"2010-01-30 00:41:00",1636201,4.092,280.6,5.564,1.067,6.775,100.9803,1.801,3.105,23.2,0,109.7,13.5,2.56,242.6
"2010-01-30 00:41:30",1636202,4.255,279.3,5.918,1.031,6.696,100.982,1.805,3.054,23.24,0,109.7,13.5,2.56,241.3
"2010-01-30 00:42:00",1636203,2.609,262.8,3.464,0.451,2.774,100.984,1.81,2.863,23.41,0,109.7,13.5,2.57,224.8
"2010-01-30 00:42:30",1636204,2.5,264.6,2.67,0.106,2.691,100.984,1.81,2.855,24.05,0,109.7,13.53,2.57,226.6
"2010-01-30 00:43:00",1636205,3.94,270.3,6.076,1.289,5.787,100.984,1.81,3.015,24.49,0,109.7,13.5,2.57,232.3
"2010-01-30 00:43:30",1636206,3.87,275,6.008,1.325,6.178,100.984,1.81,3.072,24.91,0,109.7,13.5,2.57,237.0
"2010-01-30 00:44:00",1636207,4.851,272.5,5.023,0.777,7.364,100.984,1.81,3.072,25.06,0,109.7,13.5,2.57,234.5
"2010-01-30 00:44:30",1636208,4.153,270.1,7.26,1.235,5.92,100.984,1.81,3.06,25.95,0,109.7,13.5,2.57,232.1
"2010-01-30 00:45:00",1636209,3.783,266.9,5.619,1.17,4.554,100.984,1.81,2.866,26.37,0,109.7,13.5,2.57,228.9
"2010-01-30 00:45:30",1636210,2.923,262.5,0.858,0.076,2.994,100.984,1.81,2.856,26.88,0,109.7,13.54,2.57,224.5
"2010-01-30 00:46:00",1636211,4.079,267.3,6.731,1.239,4.992,100.984,1.81,2.94,27.61,0,109.7,13.5,2.57,229.3
"2010-01-30 00:46:30",1636212,4.738,272,5.833,1.146,7.115,100.984,1.81,3.096,28.19,0,109.7,13.5,2.57,234.0
"2010-01-30 00:47:00",1636213,4.791,273.6,5.869,1.114,6.694,100.9815,1.804,3.087,28.31,0,109.7,13.5,2.56,235.6
"2010-01-30 00:47:30",1636214,4.704,273.2,6.173,1.126,6.66,100.9761,1.79,3.088,28.06,0,109.7,13.5,2.55,235.2
"2010-01-30 00:48:00",1636215,4.135,272.7,6.407,1.25,5.318,100.9739,1.784,3.021,28.19,0,109.7,13.5,2.54,234.7
"2010-01-30 00:48:30",1636216,3.156,265.9,1.348,0.092,2.663,100.9736,1.784,2.833,27.67,0,109.7,13.53,2.54,227.9
"2010-01-30 00:49:00",1636217,4.014,268.7,6.753,1.272,4.384,100.9722,1.78,2.903,28.15,0,109.7,13.5,2.54,230.7
"2010-01-30 00:49:30",1636218,4.774,273.8,6.287,1.205,6.663,100.9683,1.77,3.096,28.76,0,109.7,13.5,2.53,235.8
"2010-01-30 00:50:00",1636219,5.131,276.8,4.613,1.048,7.287,100.9692,1.772,3.081,28.44,0,109.7,13.5,2.53,238.8
"2010-01-30 00:50:30",1636220,4.867,272.9,5.879,1.112,6.788,100.9741,1.785,3.109,28.2,0,109.7,13.5,2.54,234.9
"2010-01-30 00:51:00",1636221,3.595,266.9,5.014,0.917,3.899,100.9741,1.785,3.001,28.64,0,109.7,13.5,2.54,228.9
"2010-01-30 00:51:30",1636222,3.579,266.1,5.47,1.101,3.767,100.9775,1.793,2.854,28.71,0,109.7,13.51,2.55,228.1
"2010-01-30 00:52:00",1636223,3.875,267.6,5.225,1.172,4.514,100.9809,1.802,2.966,29,0,109.7,13.51,2.56,229.6
"2010-01-30 00:52:30",1636224,4.72,270.6,6.253,1.169,6.134,100.9812,1.803,3.026,29.08,0,109.7,13.51,2.56,232.6
"2010-01-30 00:53:00",1636225,4.726,272.1,7.04,1.232,6.314,100.9818,1.804,3.087,28.88,0,109.7,13.51,2.56,234.1
"2010-01-30 00:53:30",1636226,4.566,271.5,6.022,1.249,6.15,100.9838,1.809,3.068,28.18,0,109.7,13.51,2.57,233.5
"2010-01-30 00:54:00",1636227,4.799,272.6,5.092,1.064,6.195,100.9844,1.811,3.029,28.03,0,109.7,13.51,2.57,234.6
"2010-01-30 00:54:30",1636228,3.131,261,2.813,0.673,3.149,100.9844,1.811,2.843,28.19,0,109.7,13.51,2.57,223.0
"2010-01-30 00:55:00",1636229,3.35,266,7.071,1.049,3.894,100.9844,1.811,2.849,28.29,0,109.7,13.51,2.57,228.0
"2010-01-30 00:55:30",1636230,4.475,268.7,6.874,1.259,5.744,100.9844,1.811,3.064,27.48,0,109.7,13.51,2.57,230.7
"2010-01-30 00:56:00",1636231,4.966,275.9,4.236,1.083,7.445,100.9844,1.811,3.174,27.39,0,109.7,13.52,2.57,237.9
"2010-01-30 00:56:30",1636232,4.626,272.9,6.113,1.217,6.14,100.9844,1.811,3.088,26.73,0,109.7,13.52,2.57,234.9
"2010-01-30 00:57:00",1636233,4.274,270.5,6.426,1.26,5.033,100.9844,1.811,3.008,26.65,0,109.7,13.52,2.57,232.5
"2010-01-30 00:57:30",1636234,3.759,268.8,6.041,1.133,4.234,100.9844,1.811,2.977,26.45,0,109.7,13.52,2.57,230.8
"2010-01-30 00:58:00",1636235,2.981,266.3,0.979,0.042,2.599,100.9844,1.811,2.848,25.94,0,109.7,13.55,2.57,228.3
"2010-01-30 00:58:30",1636236,4.524,273.8,5.878,1.242,5.511,100.9844,1.811,3.015,25.87,0,109.7,13.52,2.57,235.8
"2010-01-30 00:59:00",1636237,4.716,275.9,6.583,1.037,6.763,100.9844,1.811,3.165,26.06,0,109.7,13.53,2.57,237.9
"2010-01-30 00:59:30",1636238,4.31,273.7,6.688,1.241,5.91,100.9847,1.812,3.06,25.71,0,109.7,13.52,2.57,235.7
"2010-01-30 01:00:00",1636239,4.185,273.5,6.487,1.267,5.576,100.9847,1.812,3.04,25.59,0,109.7,13.53,2.57,235.5
"2010-01-30 01:00:30",1636240,3.918,271.4,5.667,1.248,4.602,100.9844,1.811,2.997,25.53,0,109.7,13.53,2.57,233.4
"2010-01-30 01:01:00",1636241,2.667,273.8,2.503,0.182,2.87,100.9847,1.812,2.866,25.18,0,109.7,13.56,2.57,235.8
"2010-01-30 01:01:30",1636242,3.715,275.9,6.764,1.234,4.858,100.9861,1.815,2.998,25.12,0,109.7,13.53,2.57,237.9
"2010-01-30 01:02:00",1636243,4.589,280.7,7.277,1.081,6.67,100.9864,1.816,3.114,25.37,0,109.7,13.53,2.57,242.7
"2010-01-30 01:02:30",1636244,4.198,288.9,6.115,1.172,6.867,100.9875,1.819,3.155,25.16,0,109.7,13.53,2.58,250.9
"2010-01-30 01:03:00",1636245,4.274,289,6.111,1.136,6.551,100.9892,1.823,3.146,24.73,0,109.7,13.52,2.58,251.0
"2010-01-30 01:03:30",1636246,3.462,284.2,7.649,1.241,5.191,100.9949,1.838,3.038,24.38,0,109.7,13.52,2.60,246.2
"2010-01-30 01:04:00",1636247,2.755,276.2,3.786,0.651,2.903,101.002,1.856,2.903,24.34,0,109.7,13.52,2.61,238.2
"2010-01-30 01:04:30",1636248,2.713,270.2,3.512,0.103,2.84,101.0094,1.875,2.945,24.47,0,109.7,13.55,2.63,232.2
"2010-01-30 01:05:00",1636249,4.159,282.8,6.143,1.224,6.61,101.0116,1.88,3.147,24.64,0,109.7,13.52,2.64,244.8
"2010-01-30 01:05:30",1636250,4.907,277.9,5.974,0.906,7.376,101.0182,1.897,3.157,24.51,0,109.7,13.53,2.66,239.9
"2010-01-30 01:06:00",1636251,4.554,279.9,6.203,1.148,6.453,101.0207,1.904,3.124,24.5,0,109.7,13.52,2.66,241.9
"2010-01-30 01:06:30",1636252,3.587,278.8,7.169,1.069,4.779,101.0236,1.911,3.121,24.42,0,109.7,13.52,2.67,240.8
"2010-01-30 01:07:00",1636253,3.173,279,4.897,1.252,3.954,101.0304,1.928,2.913,24.08,0,109.7,13.53,2.69,241.0
"2010-01-30 01:07:30",1636254,2.166,282.5,3.015,0.172,2.794,101.0344,1.939,2.926,23.93,0,109.7,13.56,2.70,244.5
"2010-01-30 01:08:00",1636255,3.033,280.6,6.027,1.124,4.23,101.0369,1.945,3.007,23.91,0,109.7,13.53,2.70,242.6
"2010-01-30 01:08:30",1636256,4.642,282.1,6.387,1.146,6.878,101.0429,1.96,3.214,24.05,0,109.7,13.53,2.72,244.1
"2010-01-30 01:09:00",1636257,4.354,280.9,4.878,1.185,6.367,101.0441,1.963,3.142,24.12,0,109.7,13.54,2.72,242.9
"2010-01-30 01:09:30",1636258,3.749,281.2,6.699,1.276,5.836,101.0438,1.962,3.155,24.14,0,109.7,13.54,2.72,243.2
"2010-01-30 01:10:00",1636259,3.121,281,8.97,1.287,5.011,101.0458,1.968,3.05,23.94,0,109.6,13.54,2.73,243.0
"2010-01-30 01:10:30",1636260,2.17,272.7,6.587,0.243,2.909,101.0458,1.968,2.938,23.79,0,109.7,13.57,2.73,234.7
"2010-01-30 01:11:00",1636261,2.832,285.8,6.694,1.116,4.478,101.0495,1.977,2.98,23.75,0,109.6,13.54,2.74,247.8
"2010-01-30 01:11:30",1636262,3.655,286.5,7.373,1.165,5.793,101.0495,1.977,3.071,23.75,0,109.6,13.54,2.74,248.5
"2010-01-30 01:12:00",1636263,3.638,277.5,6.502,1.136,6.302,101.0506,1.98,3.194,23.81,0,109.6,13.54,2.74,239.5
"2010-01-30 01:12:30",1636264,3.683,280.6,5.324,1.199,6.207,101.0495,1.977,3.154,23.74,0,109.6,13.54,2.74,242.6
"2010-01-30 01:13:00",1636265,2.926,279.9,8.22,1.148,4.281,101.0518,1.983,3.036,23.5,0,109.7,13.54,2.74,241.9
"2010-01-30 01:13:30",1636266,2.942,281,7.546,1.195,4.692,101.0515,1.982,3.092,23.5,0,109.6,13.54,2.74,243.0
"2010-01-30 01:14:00",1636267,2.038,275.9,4.264,0.069,2.758,101.0523,1.984,2.955,23.35,0,109.6,13.57,2.74,237.9
"2010-01-30 01:14:30",1636268,2.077,270.9,1.659,0.109,2.939,101.0526,1.985,2.962,23.28,0,109.6,13.58,2.74,232.9
"2010-01-30 01:15:00",1636269,3.572,272.7,5.802,1.372,5.716,101.0526,1.985,3.173,23.52,0,109.6,13.54,2.74,234.7
"2010-01-30 01:15:30",1636270,4.275,278.2,5.016,1.176,7.037,101.0523,1.984,3.259,23.82,0,109.6,13.54,2.74,240.2
"2010-01-30 01:16:00",1636271,4.439,277.6,5.88,1.019,7.22,101.0526,1.985,3.23,23.8,0,109.6,13.54,2.74,239.6
"2010-01-30 01:16:30",1636272,3.54,278.8,7.499,1.164,5.352,101.0526,1.985,3.113,23.58,0,109.6,13.54,2.74,240.8
"2010-01-30 01:17:00",1636273,2.752,270.1,5.119,0.752,3.679,101.0526,1.985,3.102,23.42,0,109.6,13.54,2.74,232.1
"2010-01-30 01:17:30",1636274,2.374,268.8,3.112,0.132,2.907,101.0526,1.985,2.968,23.29,0,109.6,13.58,2.74,230.8
"2010-01-30 01:18:00",1636275,2.732,269.4,5.101,0.964,4.161,101.0526,1.985,3.131,23.45,0,109.6,13.55,2.74,231.4
"2010-01-30 01:18:30",1636276,4.788,283.8,4.357,0.679,7.965,101.0526,1.985,3.284,23.7,0,109.6,13.54,2.74,245.8
"2010-01-30 01:19:00",1636277,4.783,280.1,5.612,1.005,6.911,101.0526,1.985,3.208,23.59,0,109.6,13.54,2.74,242.1
"2010-01-30 01:19:30",1636278,3.739,278.2,6.87,1.171,5.406,101.0526,1.985,3.21,23.54,0,109.6,13.54,2.74,240.2
"2010-01-30 01:20:00",1636279,3.602,277.8,6.148,1.214,4.628,101.0526,1.985,3.067,23.45,0,109.6,13.54,2.74,239.8
"2010-01-30 01:20:30",1636280,2.584,270.4,1.303,0.074,2.851,101.0526,1.985,3.035,23.3,0,109.6,13.57,2.74,232.4
"2010-01-30 01:21:00",1636281,2.837,272.2,2.771,0.669,2.962,101.0526,1.985,2.981,23.25,0,109.6,13.54,2.74,234.2
"2010-01-30 01:21:30",1636282,3.639,277.8,6.385,1.256,5.194,101.0526,1.985,3.137,23.46,0,109.6,13.54,2.74,239.8
"2010-01-30 01:22:00",1636283,4.975,283.3,5.123,0.556,7.528,101.0526,1.985,3.239,23.65,0,109.7,13.54,2.74,245.3
"2010-01-30 01:22:30",1636284,4.277,277.9,6.199,1.178,6.052,101.0524,1.984,3.24,23.62,0,109.6,13.54,2.74,239.9
"2010-01-30 01:23:00",1636285,3.412,274.1,5.049,1.097,4.742,101.0526,1.985,3.12,23.52,0,109.6,13.54,2.74,236.1
"2010-01-30 01:23:30",1636286,2.745,269.1,3.649,0.474,2.844,101.0526,1.985,3.05,23.61,0,109.6,13.54,2.74,231.1
"2010-01-30 01:24:00",1636287,2.497,268.8,1.268,0.101,2.748,101.0526,1.985,2.997,23.62,0,109.6,13.58,2.74,230.8
"2010-01-30 01:24:30",1636288,3.453,271.9,6.081,1.226,4.165,101.0529,1.986,3.037,23.64,0,109.6,13.55,2.74,233.9
"2010-01-30 01:25:00",1636289,4.675,279.8,4.252,0.905,7.775,101.0529,1.986,3.284,23.89,0,109.6,13.56,2.74,241.8
"2010-01-30 01:25:30",1636290,4.539,276,5.784,0.863,7.004,101.0532,1.987,3.253,23.98,0,109.6,13.56,2.75,238.0
"2010-01-30 01:26:00",1636291,3.853,274.4,6.294,1.156,5.813,101.0543,1.989,3.269,24.32,0,109.6,13.56,2.75,236.4
"2010-01-30 01:26:30",1636292,3.084,271.9,4.604,1.137,3.896,101.0535,1.987,3.046,24.14,0,109.6,13.56,2.75,233.9
"2010-01-30 01:27:00",1636293,2.972,274.8,5.65,1.069,4.173,101.0552,1.992,3.082,24.02,0,109.6,13.56,2.75,236.8
"2010-01-30 01:27:30",1636294,2.315,273.4,2.426,0.092,2.958,101.0555,1.992,3.026,24.02,0,109.6,13.59,2.75,235.4
"2010-01-30 01:28:00",1636295,3.605,277.3,5.691,1.27,5.402,101.0586,2,3.192,24.31,0,109.6,13.56,2.76,239.3
"2010-01-30 01:28:30",1636296,4.341,284.7,7.445,1.036,7.18,101.0595,2.003,3.33,24.44,0,109.6,13.56,2.76,246.7
"2010-01-30 01:29:00",1636297,4.642,283.9,4.386,0.686,7.28,101.0618,2.008,3.261,24.17,0,109.6,13.56,2.77,245.9
"2010-01-30 01:29:30",1636298,3.014,274.2,6.822,1.13,4.442,101.0644,2.015,3.19,24.11,0,109.6,13.56,2.77,236.2
"2010-01-30 01:30:00",1636299,3.402,274.5,6.415,1.138,4.51,101.0686,2.026,3.062,24.08,0,109.6,13.56,2.78,236.5
"2010-01-30 01:30:30",1636300,2.456,266.6,1.42,0.079,2.798,101.0681,2.024,3.017,24.13,0,109.6,13.59,2.78,228.6
"2010-01-30 01:31:00",1636301,2.462,268.2,1.531,0.06,2.92,101.0695,2.028,3.037,24.21,0,109.6,13.6,2.79,230.2
"2010-01-30 01:31:30",1636302,3.998,275.9,5.838,1.211,6.3,101.0741,2.04,3.301,24.41,0,109.6,13.56,2.80,237.9
"2010-01-30 01:32:00",1636303,4.465,278.8,5.217,0.97,7.601,101.0761,2.045,3.315,24.41,0,109.5,13.56,2.80,240.8
"2010-01-30 01:32:30",1636304,4.143,279.7,5.507,1.075,6.273,101.0758,2.044,3.193,24.24,0,109.6,13.56,2.80,241.7
"2010-01-30 01:33:00",1636305,3.568,274,5.083,1.299,4.957,101.0769,2.047,3.126,24.09,0,109.6,13.56,2.81,236.0
"2010-01-30 01:33:30",1636306,2.724,271.2,4.691,0.955,3.92,101.0752,2.043,3.165,24.09,0,109.6,13.56,2.80,233.2
"2010-01-30 01:34:00",1636307,2.185,272.4,2.361,0.505,3.187,101.0801,2.055,3.041,23.87,0,109.6,13.56,2.81,234.4
"2010-01-30 01:34:30",1636308,2.691,269.2,6.046,1.04,3.844,101.0812,2.058,3.066,23.92,0,109.6,13.56,2.82,231.2
"2010-01-30 01:35:00",1636309,3.849,276.1,6.024,1.157,7.011,101.0818,2.06,3.285,24.21,0,109.6,13.56,2.82,238.1
"2010-01-30 01:35:30",1636310,3.327,274.3,6.908,1.268,5.787,101.0818,2.06,3.183,24,0,109.6,13.56,2.82,236.3
"2010-01-30 01:36:00",1636311,3.194,273.8,6.545,1.325,5.295,101.0838,2.065,3.21,24.09,0,109.6,13.56,2.82,235.8
"2010-01-30 01:36:30",1636312,2.539,272.1,5.51,0.981,4.014,101.0858,2.07,3.19,24.03,0,109.6,13.56,2.83,234.1
"2010-01-30 01:37:00",1636313,2.541,268.7,6.555,1.034,4.015,101.0858,2.07,3.037,23.86,0,109.6,13.56,2.83,230.7
"2010-01-30 01:37:30",1636314,2.243,266.8,2.873,0.065,3.346,101.0852,2.068,3.155,24.05,0,109.6,13.59,2.83,228.8
"2010-01-30 01:38:00",1636315,3.452,271.5,7.386,1.313,5.638,101.0841,2.065,3.152,24.11,0,109.7,13.56,2.82,233.5
"2010-01-30 01:38:30",1636316,3.89,275.6,5.779,1.119,6.833,101.0824,2.061,3.289,24.24,0,109.6,13.56,2.82,237.6
"2010-01-30 01:39:00",1636317,3.254,270.6,7.066,1.256,5.985,101.0802,2.055,3.296,24.24,0,109.6,13.56,2.81,232.6
"2010-01-30 01:39:30",1636318,3.504,268.7,7.108,1.17,6.176,101.0756,2.044,3.225,24.23,0,109.6,13.56,2.80,230.7
"2010-01-30 01:40:00",1636319,2.969,265.2,5.981,1.16,5.094,101.0719,2.034,3.172,24.36,0,109.6,13.56,2.79,227.2
"2010-01-30 01:40:30",1636320,2.008,261.7,2.506,0.118,3.358,101.0686,2.026,3.042,24.29,0,109.6,13.6,2.78,223.7
"2010-01-30 01:41:00",1636321,2.518,263.7,4.145,1.005,4.002,101.062,2.009,3.032,24.27,0,109.6,13.57,2.77,225.7
"2010-01-30 01:41:30",1636322,3.236,267.1,5.303,1.152,5.882,101.0592,2.002,3.264,24.46,0,109.6,13.57,2.76,229.1
"2010-01-30 01:42:00",1636323,3.812,268.3,5.956,1.244,6.67,101.0558,1.993,3.258,24.75,0,109.6,13.57,2.75,230.3
"2010-01-30 01:42:30",1636324,3.716,268.9,5.974,1.182,6.357,101.053,1.986,3.161,24.8,0,109.6,13.57,2.75,230.9
"2010-01-30 01:43:00",1636325,3.229,266.4,6.252,1.219,5.476,101.0533,1.987,3.274,24.88,0,109.6,13.57,2.75,228.4
"2010-01-30 01:43:30",1636326,3.181,264.9,6.614,1.214,5.258,101.053,1.986,3.1,24.88,0,109.6,13.57,2.75,226.9
"2010-01-30 01:44:00",1636327,2.187,262.5,1.462,0.073,3.373,101.053,1.986,3.025,25.01,0,109.6,13.61,2.75,224.5
"2010-01-30 01:44:30",1636328,3.254,267.9,6.396,1.295,5.559,101.053,1.986,3.165,25.15,0,109.6,13.57,2.75,229.9
"2010-01-30 01:45:00",1636329,3.057,267.6,5.183,1.027,4.401,101.053,1.986,3.124,25.27,0,109.6,13.57,2.75,229.6
"2010-01-30 01:45:30",1636330,4.086,271.1,6.43,1.243,6.052,101.053,1.986,3.276,26.02,0,109.6,13.57,2.75,233.1
"2010-01-30 01:46:00",1636331,4.316,274.3,5.83,1.181,6.319,101.053,1.986,3.236,26.54,0,109.6,13.57,2.75,236.3
"2010-01-30 01:46:30",1636332,3.572,270.9,5.833,1.129,4.916,101.053,1.986,3.221,26.77,0,109.6,13.57,2.75,232.9
"2010-01-30 01:47:00",1636333,3.432,269.4,5.764,1.149,4.198,101.053,1.986,3.027,26.68,0,109.6,13.57,2.75,231.4
"2010-01-30 01:47:30",1636334,3.773,270.9,6.554,1.292,5.122,101.053,1.986,3.166,26.89,0,109.6,13.57,2.75,232.9
"2010-01-30 01:48:00",1636335,3.189,269,5.789,1.029,4.349,101.053,1.986,3.183,27.07,0,109.6,13.57,2.75,231.0